Погода в Александровке

Украина / Херсонская область     46°18′11″N   32°01′30″E
темп.,
°C
ветер,
м/с
пор.,
м/с
влажн.,
%
обл.,
%
осадки,
мм/ч
давл.,
гПа
погр.,
м
7 мая, пт
пт700:00+12с3487100 0.0 101468
03:00+11с34866 0.0 101587
06:00+11св23854 0.0 101554
09:00+14вюв3467100 0.0 1016295
12:00+15ююв556462 0.0 1016400
15:00+15ю6768100 0.0 1015330
18:00+15ююв71176100 0.0 1013309
21:00+14ююв71378100 0.0 1012272
8 мая, сб
сб800:00+14ю71481100 0.2 1011302
03:00+13ю71589100 0.7 1010309
06:00+14ю81588100 0.4 1009301
09:00+14юз5890100 0.7 1011219
12:00+14ссз91079100 0.5 1013539
15:00+12ссз71183100 1.7 1014687
18:00+14ссз51065100 0.8 1015814
21:00+12ссз5960100 0.8 1017256
9 мая, вс
вс900:00+11ссз9116295 0.0 1019736
03:00+8ссз911760 0.0 1020641
06:00+8ссз710740 0.0 1023568
09:00+10ссз78610 0.0 1024835
12:00+12ссз67505 0.0 10251406
15:00+14сз57425 0.0 10261428
18:00+14з655138 0.0 1026536
21:00+12з576747 0.0 1027150
10 мая, пн
пн1000:00+12ссз45665 0.0 102794
03:00+10всв33629 0.0 102766
06:00+9св33655 0.0 102882
09:00+13св34545 0.0 1028469
12:00+15ссз45482 0.0 10271090
15:00+15зсз56484 0.0 10251124
18:00+14з555713 0.0 1024422
21:00+13зсз56705 0.0 1023107
11 мая, вт
вт1100:00+12с49645 0.0 1022230
03:00+12ссз71163100 0.0 1021398
06:00+12ссз81065100 0.0 1019491
09:00+13с796694 0.0 1019525
12:00+15с686845 0.0 1018369
15:00+19сз586119 0.0 1015730
18:00+16всв9127591 1.2 1015395
21:00+12св611710 1.2 1016405